This is the latest recevied weather packets stored in our database for station/object HOWARD. If no packets are shown the sender has not sent any weather packets the latest 10 day(s).
| Time | Temp. | Humidity | Pressure | Rain* | Wind** | Luminosity | Snow |
|---|---|---|---|---|---|---|---|
| 1788450885 | 2.78° C | 87% | 1007.2 hPa | 0 mm | - | - | - |
| 1788450285 | 2.78° C | 87% | 1008 hPa | 0 mm | - | - | - |
| 1788449685 | 3.33° C | 88% | 1007.9 hPa | 0 mm | - | - | - |
| 1788449085 | 2.78° C | 87% | 1007.7 hPa | 0 mm | - | - | - |
| 1788448485 | 2.78° C | 87% | 1007.7 hPa | 0 mm | - | - | - |
| 1788447885 | 2.78° C | 87% | 1007.5 hPa | 0 mm | - | - | - |
| 1788447285 | 2.22° C | 89% | 1007.6 hPa | 0 mm | - | - | - |
| 1788446686 | 2.22° C | 89% | 1007.5 hPa | 0.25 mm | - | - | - |
| 1788446085 | 2.22° C | 90% | 1007.5 hPa | 0.51 mm | - | - | - |
| 1788445485 | 1.67° C | 90% | 1007.5 hPa | 0.51 mm | - | - | - |
| 1788444885 | 1.67° C | 90% | 1007.5 hPa | 0.51 mm | - | - | - |
| 1788444285 | 1.67° C | - | 1007.3 hPa | 0.76 mm | - | - | - |
| 1788443685 | 1.11° C | 90% | 1007.5 hPa | 1.02 mm | - | - | - |
| 1788443085 | 1.67° C | 90% | 1007.2 hPa | 1.02 mm | - | - | - |
| 1788442485 | 1.67° C | 90% | 1007.1 hPa | 1.02 mm | - | - | - |
| 1788441885 | 1.67° C | 89% | 1007 hPa | 1.02 mm | - | - | - |
| 1788441285 | 1.67° C | 90% | 1006.8 hPa | 1.02 mm | - | - | - |
| 1788440685 | 1.67° C | 90% | 1006.7 hPa | 0.76 mm | - | - | - |
| 1788440124 | 1.67° C | 89% | 1006.7 hPa | 0.51 mm | - | - | - |
| 1788440085 | 1.67° C | 89% | 1006.7 hPa | 0.51 mm | - | - | - |
| 1788439485 | 1.67° C | 89% | 1006.5 hPa | 0.25 mm | - | - | - |
| 1788438885 | 2.22° C | 90% | 1006.4 hPa | 0.25 mm | - | - | - |
| 1788438379 | 2.22° C | 89% | 1006.5 hPa | 0.25 mm | - | - | - |
| 1788438285 | 2.22° C | 89% | 1006.5 hPa | 0.25 mm | - | - | - |
| 1788437851 | 2.22° C | 89% | 1006.4 hPa | 0.25 mm | - | - | - |
* Rain latest hour (hover to see other rain measurements)
** Current wind speed in m/s (hover to see current wind gust speed)